N829DM KOMN-KFXE

Flight info

Callsign N829DM
Flight time N/A
Altitude 7500
Route SMYRA T208 VALKA/N0184F080 T345 AIRBT/N0182F070 T345 MARKT
Aircraft SR22/L-SDGRY/S

Departure

Time N/A
Airport Ormond Beach Municipal Airport (KOMN)

Arrival

Time 2026-05-08 23:29
Airport Fort Lauderdale Executive Airport (KFXE)
Time Latitude Longitude Altitude Speed Heading
2026-05-08 22:33 28.73980 -80.70049 5387 ft 183 kts 150°
2026-05-08 22:33 28.72892 -80.69250 5387 ft 184 kts 150°
2026-05-08 22:34 28.71809 -80.68454 5390 ft 184 kts 150°
2026-05-08 22:34 28.70712 -80.67652 5383 ft 184 kts 150°
2026-05-08 22:34 28.69615 -80.66851 5384 ft 184 kts 149°
2026-05-08 22:34 28.68511 -80.66047 5383 ft 184 kts 149°
2026-05-08 22:35 28.67403 -80.65243 5384 ft 184 kts 150°
2026-05-08 22:35 28.66310 -80.64444 5384 ft 184 kts 150°
2026-05-08 22:35 28.65211 -80.63651 5384 ft 184 kts 150°
2026-05-08 22:35 28.64118 -80.62864 5385 ft 184 kts 150°
2026-05-08 22:36 28.63016 -80.62064 5386 ft 185 kts 150°
2026-05-08 22:36 28.61928 -80.61268 5385 ft 185 kts 149°
2026-05-08 22:36 28.60829 -80.60469 5383 ft 185 kts 149°
2026-05-08 22:36 28.59728 -80.59673 5378 ft 185 kts 150°
2026-05-08 22:37 28.58634 -80.58879 5377 ft 184 kts 150°
2026-05-08 22:37 28.57532 -80.58090 5382 ft 183 kts 150°
2026-05-08 22:37 28.56453 -80.57307 5376 ft 183 kts 150°
2026-05-08 22:37 28.55354 -80.56516 5363 ft 184 kts 150°
2026-05-08 22:38 28.54285 -80.55743 5371 ft 183 kts 149°
2026-05-08 22:38 28.53193 -80.54959 5375 ft 182 kts 150°
2026-05-08 22:38 28.52118 -80.54185 5377 ft 182 kts 149°
2026-05-08 22:38 28.51025 -80.53394 5377 ft 182 kts 150°
2026-05-08 22:39 28.49951 -80.52621 5375 ft 182 kts 150°
2026-05-08 22:39 28.48864 -80.51834 5375 ft 183 kts 149°
2026-05-08 22:39 28.47778 -80.51048 5375 ft 183 kts 149°
2026-05-08 22:39 28.46671 -80.50273 5377 ft 183 kts 150°
2026-05-08 22:40 28.45598 -80.49521 5370 ft 183 kts 150°
2026-05-08 22:40 28.44611 -80.48909 5364 ft 181 kts 163°
2026-05-08 22:40 28.43295 -80.48471 5373 ft 181 kts 166°
2026-05-08 22:40 28.42061 -80.48099 5368 ft 180 kts 174°
2026-05-08 22:41 28.40806 -80.48146 5384 ft 178 kts 188°
2026-05-08 22:41 28.39561 -80.48274 5379 ft 178 kts 187°
2026-05-08 22:41 28.38323 -80.48407 5383 ft 178 kts 187°
2026-05-08 22:41 28.37061 -80.48543 5384 ft 178 kts 188°
2026-05-08 22:42 28.35828 -80.48679 5388 ft 178 kts 188°
2026-05-08 22:42 28.34584 -80.48820 5388 ft 178 kts 188°
2026-05-08 22:42 28.33320 -80.48964 5375 ft 178 kts 189°
2026-05-08 22:42 28.32122 -80.49123 5419 ft 175 kts 189°
2026-05-08 22:43 28.30868 -80.49255 5455 ft 174 kts 186°
2026-05-08 22:43 28.29626 -80.49342 5401 ft 179 kts 184°
2026-05-08 22:43 28.28352 -80.49374 5372 ft 181 kts 184°
2026-05-08 22:43 28.27068 -80.49394 5377 ft 181 kts 184°
2026-05-08 22:44 28.25805 -80.49420 5378 ft 180 kts 183°
2026-05-08 22:44 28.24532 -80.49450 5379 ft 180 kts 184°
2026-05-08 22:44 28.23274 -80.49486 5380 ft 179 kts 183°
2026-05-08 22:44 28.22009 -80.49525 5380 ft 179 kts 184°
2026-05-08 22:45 28.20748 -80.49560 5382 ft 179 kts 184°
2026-05-08 22:45 28.19472 -80.49593 5382 ft 179 kts 183°
2026-05-08 22:45 28.18229 -80.49628 5383 ft 179 kts 184°
2026-05-08 22:45 28.16965 -80.49663 5381 ft 179 kts 184°
2026-05-08 22:46 28.15690 -80.49699 5380 ft 180 kts 184°
2026-05-08 22:46 28.14425 -80.49734 5379 ft 180 kts 184°
2026-05-08 22:46 28.13149 -80.49768 5381 ft 180 kts 184°
2026-05-08 22:46 28.11875 -80.49807 5381 ft 181 kts 184°
2026-05-08 22:47 28.10603 -80.49842 5383 ft 181 kts 184°
2026-05-08 22:47 28.09329 -80.49877 5396 ft 180 kts 184°
2026-05-08 22:47 28.08069 -80.49913 5389 ft 180 kts 184°
2026-05-08 22:47 28.06791 -80.49948 5390 ft 181 kts 184°
2026-05-08 22:48 28.05519 -80.49988 5389 ft 181 kts 184°
2026-05-08 22:48 28.04246 -80.50050 5379 ft 179 kts 184°
2026-05-08 22:48 28.02980 -80.50091 5389 ft 179 kts 184°
2026-05-08 22:48 28.01719 -80.50131 5392 ft 180 kts 184°
2026-05-08 22:49 28.00436 -80.50168 5392 ft 181 kts 184°
2026-05-08 22:49 27.97891 -80.50242 5393 ft 180 kts 183°
2026-05-08 22:49 27.96625 -80.50236 5433 ft 178 kts 177°
2026-05-08 22:50 27.95413 -80.49860 5480 ft 179 kts 155°
2026-05-08 22:50 27.94310 -80.49182 5495 ft 180 kts 153°
2026-05-08 22:50 27.93184 -80.48477 5500 ft 182 kts 153°
2026-05-08 22:50 27.92064 -80.47778 5500 ft 183 kts 152°
2026-05-08 22:51 27.90936 -80.47083 5499 ft 184 kts 153°
2026-05-08 22:51 27.89788 -80.46379 5501 ft 185 kts 153°
2026-05-08 22:51 27.88674 -80.45695 5503 ft 185 kts 153°
2026-05-08 22:51 27.87529 -80.44994 5489 ft 186 kts 152°
2026-05-08 22:52 27.86375 -80.44288 5497 ft 185 kts 153°
2026-05-08 22:52 27.85283 -80.43612 5511 ft 185 kts 152°
2026-05-08 22:52 27.84116 -80.42896 5518 ft 185 kts 153°
2026-05-08 22:52 27.82983 -80.42190 5519 ft 185 kts 152°
2026-05-08 22:53 27.81844 -80.41484 5519 ft 185 kts 153°
2026-05-08 22:53 27.80755 -80.40815 5519 ft 185 kts 153°
2026-05-08 22:53 27.79628 -80.40128 5511 ft 186 kts 155°
2026-05-08 22:53 27.78439 -80.39478 5518 ft 186 kts 155°
2026-05-08 22:54 27.77226 -80.38820 5519 ft 186 kts 155°
2026-05-08 22:54 27.76039 -80.38173 5519 ft 186 kts 155°
2026-05-08 22:54 27.74829 -80.37513 5520 ft 186 kts 155°
2026-05-08 22:54 27.73635 -80.36870 5519 ft 186 kts 155°
2026-05-08 22:55 27.72465 -80.36240 5519 ft 186 kts 155°
2026-05-08 22:55 27.71273 -80.35599 5519 ft 186 kts 155°
2026-05-08 22:55 27.70124 -80.34978 5519 ft 186 kts 156°
2026-05-08 22:55 27.68917 -80.34322 5517 ft 186 kts 156°
2026-05-08 22:56 27.67738 -80.33686 5517 ft 186 kts 156°
2026-05-08 22:56 27.66557 -80.33050 5517 ft 186 kts 156°
2026-05-08 22:56 27.65384 -80.32422 5516 ft 186 kts 156°
2026-05-08 22:56 27.64191 -80.31842 5517 ft 185 kts 162°
2026-05-08 22:57 27.62958 -80.31347 5517 ft 185 kts 162°
2026-05-08 22:57 27.61729 -80.30856 5517 ft 186 kts 162°
2026-05-08 22:57 27.60508 -80.30372 5517 ft 185 kts 162°
2026-05-08 22:57 27.59274 -80.29882 5517 ft 185 kts 162°
2026-05-08 22:58 27.58036 -80.29388 5517 ft 185 kts 162°
2026-05-08 22:58 27.56820 -80.28901 5517 ft 185 kts 162°
2026-05-08 22:58 27.55575 -80.28402 5517 ft 186 kts 162°
2026-05-08 22:58 27.54349 -80.27911 5518 ft 186 kts 162°
2026-05-08 22:59 27.53098 -80.27413 5518 ft 186 kts 162°
2026-05-08 22:59 27.51860 -80.26922 5517 ft 186 kts 162°
2026-05-08 22:59 27.50633 -80.26438 5517 ft 186 kts 162°
2026-05-08 22:59 27.49403 -80.25957 5518 ft 185 kts 162°
2026-05-08 23:00 27.48173 -80.25477 5517 ft 185 kts 162°
2026-05-08 23:00 27.46963 -80.24995 5517 ft 185 kts 162°
2026-05-08 23:00 27.45781 -80.24528 5518 ft 185 kts 162°
2026-05-08 23:00 27.44538 -80.24036 5518 ft 185 kts 162°
2026-05-08 23:01 27.43328 -80.23562 5518 ft 185 kts 162°
2026-05-08 23:01 27.42073 -80.23072 5518 ft 185 kts 162°
2026-05-08 23:01 27.40852 -80.22596 5517 ft 185 kts 162°
2026-05-08 23:01 27.39625 -80.22115 5518 ft 185 kts 162°
2026-05-08 23:02 27.38395 -80.21631 5517 ft 185 kts 162°
2026-05-08 23:02 27.37168 -80.21141 5517 ft 186 kts 162°
2026-05-08 23:02 27.35952 -80.20658 5517 ft 186 kts 162°
2026-05-08 23:02 27.34719 -80.20172 5519 ft 186 kts 162°
2026-05-08 23:03 27.33494 -80.19693 5518 ft 186 kts 162°
2026-05-08 23:03 27.32251 -80.19208 5518 ft 185 kts 162°
2026-05-08 23:03 27.31036 -80.18735 5518 ft 185 kts 162°
2026-05-08 23:03 27.29807 -80.18254 5518 ft 185 kts 161°
2026-05-08 23:04 27.28567 -80.17774 5518 ft 185 kts 162°
2026-05-08 23:04 27.27352 -80.17304 5598 ft 181 kts 162°
2026-05-08 23:04 27.26162 -80.16838 5712 ft 176 kts 161°
2026-05-08 23:04 27.25014 -80.16385 5893 ft 170 kts 162°
2026-05-08 23:05 27.23907 -80.15945 6077 ft 165 kts 162°
2026-05-08 23:05 27.22836 -80.15519 6262 ft 162 kts 162°
2026-05-08 23:05 27.21769 -80.15089 6451 ft 159 kts 162°
2026-05-08 23:05 27.20725 -80.14667 6640 ft 157 kts 162°
2026-05-08 23:06 27.19683 -80.14246 6831 ft 155 kts 162°
2026-05-08 23:06 27.18675 -80.13834 7019 ft 153 kts 161°
2026-05-08 23:06 27.17666 -80.13418 7208 ft 152 kts 161°
2026-05-08 23:06 27.16678 -80.13007 7397 ft 150 kts 162°
2026-05-08 23:07 27.15685 -80.12587 7505 ft 155 kts 162°
2026-05-08 23:07 27.14646 -80.12151 7521 ft 163 kts 162°
2026-05-08 23:07 27.13552 -80.11694 7522 ft 169 kts 162°
2026-05-08 23:07 27.12418 -80.11221 7521 ft 173 kts 162°
2026-05-08 23:08 27.11262 -80.10743 7520 ft 176 kts 161°
2026-05-08 23:08 27.10104 -80.10262 7519 ft 177 kts 162°
2026-05-08 23:08 27.08933 -80.09776 7519 ft 178 kts 161°
2026-05-08 23:08 27.07753 -80.09287 7516 ft 180 kts 161°
2026-05-08 23:09 27.06570 -80.08804 7510 ft 180 kts 162°
2026-05-08 23:09 27.05393 -80.08320 7525 ft 180 kts 162°
2026-05-08 23:09 27.04201 -80.07832 7516 ft 181 kts 161°
2026-05-08 23:09 27.02995 -80.07343 7486 ft 181 kts 162°
2026-05-08 23:10 27.01809 -80.06853 7504 ft 179 kts 162°
2026-05-08 23:10 27.00626 -80.06364 7495 ft 179 kts 162°
2026-05-08 23:10 26.99465 -80.05888 7518 ft 177 kts 162°
2026-05-08 23:10 26.98278 -80.05402 7521 ft 179 kts 162°
2026-05-08 23:11 26.97098 -80.04915 7534 ft 180 kts 161°
2026-05-08 23:11 26.95911 -80.04424 7505 ft 181 kts 161°
2026-05-08 23:11 26.94725 -80.03931 7492 ft 181 kts 162°
2026-05-08 23:11 26.93544 -80.03442 7497 ft 179 kts 161°
2026-05-08 23:12 26.92364 -80.02953 7506 ft 178 kts 161°
2026-05-08 23:12 26.91192 -80.02474 7504 ft 178 kts 163°
2026-05-08 23:12 26.89980 -80.02277 7528 ft 176 kts 179°
2026-05-08 23:12 26.88749 -80.02225 7516 ft 176 kts 180°
2026-05-08 23:13 26.87537 -80.02177 7517 ft 176 kts 180°
2026-05-08 23:13 26.86299 -80.02129 7520 ft 177 kts 180°
2026-05-08 23:13 26.85073 -80.02079 7516 ft 177 kts 179°
2026-05-08 23:13 26.83899 -80.02032 7518 ft 177 kts 179°
2026-05-08 23:14 26.82732 -80.01987 7518 ft 177 kts 180°
2026-05-08 23:14 26.81450 -80.01938 7518 ft 177 kts 180°
2026-05-08 23:14 26.80212 -80.01895 7517 ft 177 kts 180°
2026-05-08 23:14 26.78974 -80.01852 7519 ft 177 kts 180°
2026-05-08 23:15 26.77735 -80.01804 7521 ft 177 kts 180°
2026-05-08 23:15 26.76495 -80.01756 7521 ft 177 kts 180°
2026-05-08 23:15 26.75250 -80.01709 7521 ft 177 kts 180°
2026-05-08 23:15 26.73982 -80.01717 7445 ft 181 kts 185°
2026-05-08 23:16 26.72708 -80.01820 7333 ft 185 kts 186°
2026-05-08 23:16 26.71402 -80.01929 7217 ft 188 kts 185°
2026-05-08 23:16 26.70069 -80.02042 7101 ft 190 kts 186°
2026-05-08 23:16 26.68725 -80.02155 6979 ft 192 kts 186°
2026-05-08 23:17 26.67376 -80.02274 6862 ft 193 kts 186°
2026-05-08 23:17 26.66038 -80.02389 6752 ft 193 kts 186°
2026-05-08 23:17 26.64685 -80.02503 6633 ft 194 kts 186°
2026-05-08 23:17 26.63314 -80.02621 6515 ft 195 kts 186°
2026-05-08 23:18 26.61949 -80.02741 6395 ft 195 kts 186°
2026-05-08 23:18 26.60579 -80.02861 6277 ft 196 kts 186°
2026-05-08 23:18 26.59200 -80.02979 6159 ft 196 kts 186°
2026-05-08 23:18 26.57816 -80.03100 6042 ft 197 kts 186°
2026-05-08 23:19 26.56428 -80.03224 5921 ft 197 kts 186°
2026-05-08 23:19 26.55067 -80.03349 5805 ft 197 kts 186°
2026-05-08 23:19 26.53686 -80.03477 5688 ft 197 kts 186°
2026-05-08 23:19 26.52319 -80.03603 5571 ft 197 kts 186°
2026-05-08 23:20 26.50929 -80.03731 5449 ft 197 kts 186°
2026-05-08 23:20 26.49559 -80.03861 5331 ft 197 kts 186°
2026-05-08 23:20 26.48172 -80.03994 5206 ft 196 kts 186°
2026-05-08 23:20 26.46797 -80.04125 5088 ft 196 kts 186°
2026-05-08 23:21 26.45425 -80.04256 4969 ft 196 kts 186°
2026-05-08 23:21 26.44039 -80.04393 4756 ft 198 kts 186°
2026-05-08 23:21 26.42671 -80.04529 4545 ft 198 kts 186°
2026-05-08 23:21 26.41294 -80.04667 4329 ft 197 kts 186°
2026-05-08 23:22 26.39910 -80.04810 4112 ft 197 kts 186°
2026-05-08 23:22 26.38545 -80.04950 3904 ft 197 kts 186°
2026-05-08 23:22 26.37168 -80.05095 3690 ft 197 kts 186°
2026-05-08 23:22 26.35796 -80.05241 3474 ft 197 kts 186°
2026-05-08 23:23 26.34407 -80.05389 3261 ft 197 kts 186°
2026-05-08 23:23 26.33026 -80.05540 3044 ft 197 kts 186°
2026-05-08 23:23 26.31666 -80.05696 2832 ft 197 kts 186°
2026-05-08 23:23 26.30288 -80.05867 2615 ft 197 kts 186°
2026-05-08 23:24 26.28904 -80.06047 2400 ft 197 kts 186°
2026-05-08 23:24 26.27544 -80.06233 2188 ft 196 kts 186°
2026-05-08 23:24 26.26177 -80.06432 1972 ft 196 kts 186°
2026-05-08 23:24 26.24823 -80.06633 1759 ft 196 kts 186°
2026-05-08 23:25 26.23467 -80.06840 1562 ft 194 kts 186°
2026-05-08 23:25 26.22143 -80.07044 1518 ft 186 kts 186°
2026-05-08 23:25 26.20893 -80.07363 1396 ft 187 kts 200°
2026-05-08 23:25 26.19772 -80.08061 1259 ft 189 kts 214°
2026-05-08 23:26 26.18707 -80.08939 1117 ft 189 kts 215°
2026-05-08 23:26 26.17661 -80.09847 1024 ft 188 kts 222°
2026-05-08 23:26 26.17042 -80.11102 1012 ft 183 kts 258°
2026-05-08 23:26 26.16946 -80.12504 1013 ft 180 kts 268°
2026-05-08 23:27 26.16919 -80.13905 961 ft 177 kts 271°
2026-05-08 23:27 26.16924 -80.15208 912 ft 156 kts 271°
2026-05-08 23:27 26.16951 -80.16363 833 ft 141 kts 273°
2026-05-08 23:27 26.17066 -80.17427 734 ft 137 kts 291°
2026-05-08 23:28 26.17637 -80.18199 620 ft 126 kts 332°
2026-05-08 23:28 26.18366 -80.18566 517 ft 100 kts 348°
2026-05-08 23:28 26.19034 -80.18714 326 ft 89 kts
2026-05-08 23:28 26.19571 -80.18511 163 ft 77 kts 51°
2026-05-08 23:29 26.19765 -80.17989 23 ft 70 kts 86°
2026-05-08 23:29 26.19813 -80.17534 15 ft 43 kts 85°
2026-05-08 23:29 26.19770 -80.17361 14 ft 14 kts 130°
2026-05-08 23:29 26.19718 -80.17289 14 ft 9 kts 124°
2026-05-08 23:30 26.19665 -80.17216 14 ft 18 kts 128°
2026-05-08 23:30 26.19572 -80.17090 14 ft 17 kts 142°
2026-05-08 23:30 26.19461 -80.17074 13 ft 16 kts 149°
2026-05-08 23:30 26.19439 -80.17036 13 ft 0 kts 33°